Year,Month,Day,Hour,Minute,Value (Times are PST for windgust in km/hr)
2017,09,29,00,00,8.10
2017,09,29,00,01,6.40
2017,09,29,00,02,8.10
2017,09,29,00,03,8.10
2017,09,29,00,04,8.10
2017,09,29,00,05,8.10
2017,09,29,00,06,8.10
2017,09,29,00,07,6.40
2017,09,29,00,08,3.20
2017,09,29,00,09,6.40
2017,09,29,00,10,4.80
2017,09,29,00,11,4.80
2017,09,29,00,12,4.80
2017,09,29,00,13,4.80
2017,09,29,00,14,9.60
2017,09,29,00,15,4.80
2017,09,29,00,16,6.40
2017,09,29,00,17,4.80
2017,09,29,00,18,4.80
2017,09,29,00,19,6.40
2017,09,29,00,20,6.40
2017,09,29,00,21,6.40
2017,09,29,00,22,6.40
2017,09,29,00,23,6.40
2017,09,29,00,24,4.80
2017,09,29,00,25,4.80
2017,09,29,00,26,6.40
2017,09,29,00,27,6.40
2017,09,29,00,28,8.10
2017,09,29,00,29,8.10
2017,09,29,00,30,6.40
2017,09,29,00,31,8.10
2017,09,29,00,32,8.10
2017,09,29,00,33,6.40
2017,09,29,00,34,8.10
2017,09,29,00,35,8.10
2017,09,29,00,36,6.40
2017,09,29,00,37,6.40
2017,09,29,00,38,6.40
2017,09,29,00,39,6.40
2017,09,29,00,40,6.40
2017,09,29,00,41,6.40
2017,09,29,00,42,9.60
2017,09,29,00,43,9.60
2017,09,29,00,44,11.30
2017,09,29,00,45,11.30
2017,09,29,00,46,12.90
2017,09,29,00,47,11.30
2017,09,29,00,48,8.10
2017,09,29,00,49,8.10
2017,09,29,00,50,8.10
2017,09,29,00,51,12.90
2017,09,29,00,52,9.60
2017,09,29,00,53,12.90
2017,09,29,00,54,9.60
2017,09,29,00,55,11.30
2017,09,29,00,56,9.60
2017,09,29,00,57,9.60
2017,09,29,00,58,12.90
2017,09,29,00,59,14.50
2017,09,29,01,00,17.70
2017,09,29,01,01,11.30
2017,09,29,01,02,14.50
2017,09,29,01,03,11.30
2017,09,29,01,04,16.10
2017,09,29,01,05,11.30
2017,09,29,01,06,12.90
2017,09,29,01,07,11.30
2017,09,29,01,08,11.30
2017,09,29,01,09,9.60
2017,09,29,01,10,12.90
2017,09,29,01,11,9.60
2017,09,29,01,12,9.60
2017,09,29,01,13,11.30
2017,09,29,01,14,9.60
2017,09,29,01,15,14.50
2017,09,29,01,16,12.90
2017,09,29,01,17,8.10
2017,09,29,01,18,8.10
2017,09,29,01,19,8.10
2017,09,29,01,20,8.10
2017,09,29,01,21,11.30
2017,09,29,01,22,9.60
2017,09,29,01,23,11.30
2017,09,29,01,24,9.60
2017,09,29,01,25,11.30
2017,09,29,01,26,9.60
2017,09,29,01,27,8.10
2017,09,29,01,28,8.10
2017,09,29,01,29,11.30
2017,09,29,01,30,9.60
2017,09,29,01,31,9.60
2017,09,29,01,32,11.30
2017,09,29,01,33,11.30
2017,09,29,01,34,9.60
2017,09,29,01,35,9.60
2017,09,29,01,36,9.60
2017,09,29,01,37,8.10
2017,09,29,01,38,8.10
2017,09,29,01,39,9.60
2017,09,29,01,40,8.10
2017,09,29,01,41,6.40
2017,09,29,01,42,8.10
2017,09,29,01,43,6.40
2017,09,29,01,44,6.40
2017,09,29,01,45,6.40
2017,09,29,01,46,4.80
2017,09,29,01,47,6.40
2017,09,29,01,48,4.80
2017,09,29,01,49,6.40
2017,09,29,01,50,4.80
2017,09,29,01,51,6.40
2017,09,29,01,52,6.40
2017,09,29,01,53,6.40
2017,09,29,01,54,6.40
2017,09,29,01,55,8.10
2017,09,29,01,56,8.10
2017,09,29,01,57,9.60
2017,09,29,01,58,11.30
2017,09,29,01,59,8.10
2017,09,29,02,00,8.10
2017,09,29,02,01,8.10
2017,09,29,02,02,8.10
2017,09,29,02,03,6.40
2017,09,29,02,04,6.40
2017,09,29,02,05,6.40
2017,09,29,02,06,4.80
2017,09,29,02,07,1.60
2017,09,29,02,08,1.60
2017,09,29,02,10,1.60
2017,09,29,02,11,1.60
2017,09,29,02,12,1.60
2017,09,29,02,14,1.60
2017,09,29,02,15,1.60
2017,09,29,02,16,3.20
2017,09,29,02,17,3.20
2017,09,29,02,18,4.80
2017,09,29,02,19,6.40
2017,09,29,02,20,3.20
2017,09,29,02,21,3.20
2017,09,29,02,22,1.60
2017,09,29,02,23,1.60
2017,09,29,02,24,1.60
2017,09,29,02,25,1.60
2017,09,29,02,26,4.80
2017,09,29,02,27,3.20
2017,09,29,02,28,1.60
2017,09,29,02,29,1.60
2017,09,29,02,30,1.60
2017,09,29,02,35,1.60
2017,09,29,02,36,1.60
2017,09,29,02,37,1.60
2017,09,29,02,38,1.60
2017,09,29,02,39,3.20
2017,09,29,02,40,3.20
2017,09,29,02,41,3.20
2017,09,29,02,42,1.60
2017,09,29,02,47,3.20
2017,09,29,02,48,3.20
2017,09,29,02,49,1.60
2017,09,29,02,50,1.60
2017,09,29,02,55,1.60
2017,09,29,02,56,1.60
2017,09,29,02,57,1.60
2017,09,29,02,58,1.60
2017,09,29,02,59,1.60
2017,09,29,03,00,3.20
2017,09,29,03,01,3.20
2017,09,29,03,02,3.20
2017,09,29,03,03,3.20
2017,09,29,03,04,6.40
2017,09,29,03,05,6.40
2017,09,29,03,06,4.80
2017,09,29,03,07,6.40
2017,09,29,03,08,3.20
2017,09,29,03,09,4.80
2017,09,29,03,10,3.20
2017,09,29,03,11,3.20
2017,09,29,03,12,4.80
2017,09,29,03,13,3.20
2017,09,29,03,14,4.80
2017,09,29,03,15,4.80
2017,09,29,03,16,6.40
2017,09,29,03,17,6.40
2017,09,29,03,18,6.40
2017,09,29,03,19,4.80
2017,09,29,03,20,4.80
2017,09,29,03,21,6.40
2017,09,29,03,22,4.80
2017,09,29,03,23,4.80
2017,09,29,03,24,4.80
2017,09,29,03,25,3.20
2017,09,29,03,26,4.80
2017,09,29,03,27,3.20
2017,09,29,03,28,4.80
2017,09,29,03,29,3.20
2017,09,29,03,30,3.20
2017,09,29,03,31,4.80
2017,09,29,03,32,4.80
2017,09,29,03,33,3.20
2017,09,29,03,34,4.80
2017,09,29,03,35,3.20
2017,09,29,03,36,4.80
2017,09,29,03,37,3.20
2017,09,29,03,38,4.80
2017,09,29,03,39,4.80
2017,09,29,03,40,4.80
2017,09,29,03,41,4.80
2017,09,29,03,42,3.20
2017,09,29,03,43,4.80
2017,09,29,03,44,4.80
2017,09,29,03,45,4.80
2017,09,29,03,46,3.20
2017,09,29,03,47,3.20
2017,09,29,03,48,3.20
2017,09,29,03,49,3.20
2017,09,29,03,50,4.80
2017,09,29,03,51,4.80
2017,09,29,03,52,3.20
2017,09,29,03,53,3.20
2017,09,29,03,54,1.60
2017,09,29,03,56,1.60
2017,09,29,03,57,1.60
2017,09,29,03,58,1.60
2017,09,29,03,59,3.20
2017,09,29,04,00,3.20
2017,09,29,04,01,3.20
2017,09,29,04,02,3.20
2017,09,29,04,03,1.60
2017,09,29,04,04,1.60
2017,09,29,04,05,3.20
2017,09,29,04,06,3.20
2017,09,29,04,07,3.20
2017,09,29,04,08,3.20
2017,09,29,04,09,3.20
2017,09,29,04,10,3.20
2017,09,29,04,11,3.20
2017,09,29,04,12,3.20
2017,09,29,04,13,1.60
2017,09,29,04,14,3.20
2017,09,29,04,15,3.20
2017,09,29,04,16,3.20
2017,09,29,04,17,4.80
2017,09,29,04,18,3.20
2017,09,29,04,19,4.80
2017,09,29,04,20,4.80
2017,09,29,04,21,6.40
2017,09,29,04,22,8.10
2017,09,29,04,23,9.60
2017,09,29,04,24,9.60
2017,09,29,04,25,4.80
2017,09,29,04,26,4.80
2017,09,29,04,27,3.20
2017,09,29,04,28,6.40
2017,09,29,04,29,4.80
2017,09,29,04,30,3.20
2017,09,29,04,31,6.40
2017,09,29,04,32,6.40
2017,09,29,04,33,11.30
2017,09,29,04,34,11.30
2017,09,29,04,35,9.60
2017,09,29,04,36,9.60
2017,09,29,04,37,8.10
2017,09,29,04,38,8.10
2017,09,29,04,39,9.60
2017,09,29,04,40,6.40
2017,09,29,04,41,8.10
2017,09,29,04,42,9.60
2017,09,29,04,43,6.40
2017,09,29,04,44,8.10
2017,09,29,04,45,6.40
2017,09,29,04,46,11.30
2017,09,29,04,47,9.60
2017,09,29,04,48,9.60
2017,09,29,04,49,11.30
2017,09,29,04,50,9.60
2017,09,29,04,51,6.40
2017,09,29,04,52,9.60
2017,09,29,04,53,6.40
2017,09,29,04,54,6.40
2017,09,29,04,55,6.40
2017,09,29,04,56,6.40
2017,09,29,04,57,6.40
2017,09,29,04,58,6.40
2017,09,29,04,59,6.40
2017,09,29,05,00,6.40
2017,09,29,05,01,9.60
2017,09,29,05,02,6.40
2017,09,29,05,03,4.80
2017,09,29,05,04,6.40
2017,09,29,05,05,6.40
2017,09,29,05,06,6.40
2017,09,29,05,07,4.80
2017,09,29,05,08,3.20
2017,09,29,05,09,3.20
2017,09,29,05,10,3.20
2017,09,29,05,11,3.20
2017,09,29,05,12,4.80
2017,09,29,05,13,6.40
2017,09,29,05,14,4.80
2017,09,29,05,15,3.20
2017,09,29,05,16,3.20
2017,09,29,05,17,6.40
2017,09,29,05,18,3.20
2017,09,29,05,19,4.80
2017,09,29,05,20,4.80
2017,09,29,05,21,4.80
2017,09,29,05,22,6.40
2017,09,29,05,23,4.80
2017,09,29,05,24,4.80
2017,09,29,05,25,4.80
2017,09,29,05,26,3.20
2017,09,29,05,27,6.40
2017,09,29,05,28,4.80
2017,09,29,05,29,4.80
2017,09,29,05,30,1.60
2017,09,29,05,31,1.60
2017,09,29,05,32,1.60
2017,09,29,05,33,3.20
2017,09,29,05,34,6.40
2017,09,29,05,35,4.80
2017,09,29,05,36,4.80
2017,09,29,05,37,4.80
2017,09,29,05,38,4.80
2017,09,29,05,39,4.80
2017,09,29,05,40,4.80
2017,09,29,05,41,3.20
2017,09,29,05,42,1.60
2017,09,29,05,43,1.60
2017,09,29,05,44,1.60
2017,09,29,05,45,1.60
2017,09,29,05,46,1.60
2017,09,29,05,47,1.60
2017,09,29,05,48,4.80
2017,09,29,05,49,4.80
2017,09,29,05,50,4.80
2017,09,29,05,51,3.20
2017,09,29,05,52,4.80
2017,09,29,05,53,3.20
2017,09,29,05,54,3.20
2017,09,29,05,55,3.20
2017,09,29,05,56,1.60
2017,09,29,05,57,3.20
2017,09,29,05,58,3.20
2017,09,29,05,59,3.20
2017,09,29,06,00,1.60
2017,09,29,06,01,1.60
2017,09,29,06,02,3.20
2017,09,29,06,03,3.20
2017,09,29,06,04,3.20
2017,09,29,06,05,3.20
2017,09,29,06,06,4.80
2017,09,29,06,07,3.20
2017,09,29,06,08,3.20
2017,09,29,06,09,3.20
2017,09,29,06,10,3.20
2017,09,29,06,11,4.80
2017,09,29,06,12,4.80
2017,09,29,06,13,4.80
2017,09,29,06,14,4.80
2017,09,29,06,15,3.20
2017,09,29,06,16,6.40
2017,09,29,06,17,6.40
2017,09,29,06,18,4.80
2017,09,29,06,19,4.80
2017,09,29,06,20,1.60
2017,09,29,06,21,3.20
2017,09,29,06,22,3.20
2017,09,29,06,23,3.20
2017,09,29,06,24,1.60
2017,09,29,06,25,3.20
2017,09,29,06,26,3.20
2017,09,29,06,27,4.80
2017,09,29,06,28,4.80
2017,09,29,06,29,4.80
2017,09,29,06,30,8.10
2017,09,29,06,31,4.80
2017,09,29,06,32,3.20
2017,09,29,06,33,8.10
2017,09,29,06,34,8.10
2017,09,29,06,35,3.20
2017,09,29,06,36,1.60
2017,09,29,06,46,1.60
2017,09,29,06,47,1.60
2017,09,29,06,51,4.80
2017,09,29,06,52,4.80
2017,09,29,06,53,4.80
2017,09,29,06,54,4.80
2017,09,29,06,55,3.20
2017,09,29,06,56,3.20
2017,09,29,06,57,4.80
2017,09,29,06,58,4.80
2017,09,29,06,59,4.80
2017,09,29,07,00,3.20
2017,09,29,07,01,3.20
2017,09,29,07,02,1.60
2017,09,29,07,03,1.60
2017,09,29,07,04,3.20
2017,09,29,07,06,1.60
2017,09,29,07,07,3.20
2017,09,29,07,08,3.20
2017,09,29,07,09,3.20
2017,09,29,07,10,3.20
2017,09,29,07,11,3.20
2017,09,29,07,12,3.20
2017,09,29,07,13,3.20
2017,09,29,07,14,1.60
2017,09,29,07,15,1.60
2017,09,29,07,16,3.20
2017,09,29,07,17,4.80
2017,09,29,07,18,3.20
2017,09,29,07,19,3.20
2017,09,29,07,20,3.20
2017,09,29,07,21,3.20
2017,09,29,07,22,4.80
2017,09,29,07,23,6.40
2017,09,29,07,24,6.40
2017,09,29,07,25,4.80
2017,09,29,07,26,3.20
2017,09,29,07,27,1.60
2017,09,29,07,28,1.60
2017,09,29,07,29,3.20
2017,09,29,07,30,3.20
2017,09,29,07,31,1.60
2017,09,29,07,32,1.60
2017,09,29,07,33,3.20
2017,09,29,07,34,4.80
2017,09,29,07,35,6.40
2017,09,29,07,36,9.60
2017,09,29,07,37,12.90
2017,09,29,07,38,12.90
2017,09,29,07,39,9.60
2017,09,29,07,40,8.10
2017,09,29,07,41,4.80
2017,09,29,07,42,4.80
2017,09,29,07,43,4.80
2017,09,29,07,44,6.40
2017,09,29,07,45,8.10
2017,09,29,07,46,9.60
2017,09,29,07,47,8.10
2017,09,29,07,48,4.80
2017,09,29,07,49,4.80
2017,09,29,07,50,4.80
2017,09,29,07,52,3.20
2017,09,29,07,53,3.20
2017,09,29,07,54,3.20
2017,09,29,07,55,3.20
2017,09,29,07,56,3.20
2017,09,29,07,57,4.80
2017,09,29,07,58,4.80
2017,09,29,07,59,4.80
2017,09,29,08,00,8.10
2017,09,29,08,01,8.10
2017,09,29,08,02,4.80
2017,09,29,08,03,8.10
2017,09,29,08,04,6.40
2017,09,29,08,05,8.10
2017,09,29,08,06,6.40
2017,09,29,08,07,6.40
2017,09,29,08,08,4.80
2017,09,29,08,09,4.80
2017,09,29,08,10,9.60
2017,09,29,08,11,8.10
2017,09,29,08,12,11.30
2017,09,29,08,13,11.30
2017,09,29,08,14,8.10
2017,09,29,08,15,8.10
2017,09,29,08,16,11.30
2017,09,29,08,17,11.30
2017,09,29,08,18,11.30
2017,09,29,08,19,11.30
2017,09,29,08,20,9.60
2017,09,29,08,21,14.50
2017,09,29,08,22,8.10
2017,09,29,08,23,8.10
2017,09,29,08,24,6.40
2017,09,29,08,25,8.10
2017,09,29,08,26,11.30
2017,09,29,08,27,6.40
2017,09,29,08,28,8.10
2017,09,29,08,29,8.10
2017,09,29,08,30,8.10
2017,09,29,08,31,9.60
2017,09,29,08,32,4.80
2017,09,29,08,33,6.40
2017,09,29,08,34,6.40
2017,09,29,08,35,4.80
2017,09,29,08,36,6.40
2017,09,29,08,37,8.10
2017,09,29,08,38,4.80
2017,09,29,08,39,9.60
2017,09,29,08,40,6.40
2017,09,29,08,41,6.40
2017,09,29,08,42,9.60
2017,09,29,08,43,9.60
2017,09,29,08,44,8.10
2017,09,29,08,45,8.10
2017,09,29,08,46,4.80
2017,09,29,08,47,8.10
2017,09,29,08,48,6.40
2017,09,29,08,49,6.40
2017,09,29,08,50,6.40
2017,09,29,08,51,4.80
2017,09,29,08,52,4.80
2017,09,29,08,53,8.10
2017,09,29,08,54,8.10
2017,09,29,08,55,9.60
2017,09,29,08,56,6.40
2017,09,29,08,57,11.30
2017,09,29,08,58,6.40
2017,09,29,08,59,11.30
2017,09,29,09,00,4.80
2017,09,29,09,01,11.30
2017,09,29,09,02,9.60
2017,09,29,09,03,8.10
2017,09,29,09,04,8.10
2017,09,29,09,05,6.40
2017,09,29,09,06,11.30
2017,09,29,09,07,9.60
2017,09,29,09,08,6.40
2017,09,29,09,09,9.60
2017,09,29,09,10,8.10
2017,09,29,09,11,8.10
2017,09,29,09,12,3.20
2017,09,29,09,13,8.10
2017,09,29,09,14,4.80
2017,09,29,09,15,16.10
2017,09,29,09,16,11.30
2017,09,29,09,17,14.50
2017,09,29,09,18,11.30
2017,09,29,09,19,12.90
2017,09,29,09,20,8.10
2017,09,29,09,21,6.40
2017,09,29,09,22,8.10
2017,09,29,09,23,9.60
2017,09,29,09,24,4.80
2017,09,29,09,25,4.80
2017,09,29,09,26,3.20
2017,09,29,09,27,3.20
2017,09,29,09,28,1.60
2017,09,29,09,29,4.80
2017,09,29,09,30,9.60
2017,09,29,09,31,6.40
2017,09,29,09,32,8.10
2017,09,29,09,33,9.60
2017,09,29,09,34,6.40
2017,09,29,09,35,1.60
2017,09,29,09,36,4.80
2017,09,29,09,37,3.20
2017,09,29,09,38,6.40
2017,09,29,09,39,6.40
2017,09,29,09,40,6.40
2017,09,29,09,41,4.80
2017,09,29,09,42,3.20
2017,09,29,09,43,8.10
2017,09,29,09,44,8.10
2017,09,29,09,45,1.60
2017,09,29,09,46,3.20
2017,09,29,09,47,3.20
2017,09,29,09,48,6.40
2017,09,29,09,49,6.40
2017,09,29,09,50,4.80
2017,09,29,09,51,8.10
2017,09,29,09,52,11.30
2017,09,29,09,53,4.80
2017,09,29,09,54,4.80
2017,09,29,09,55,8.10
2017,09,29,09,56,8.10
2017,09,29,09,57,4.80
2017,09,29,09,58,6.40
2017,09,29,09,59,1.60
2017,09,29,10,00,3.20
2017,09,29,10,01,3.20
2017,09,29,10,02,1.60
2017,09,29,10,03,3.20
2017,09,29,10,04,4.80
2017,09,29,10,05,3.20
2017,09,29,10,06,4.80
2017,09,29,10,07,4.80
2017,09,29,10,08,8.10
2017,09,29,10,09,11.30
2017,09,29,10,10,12.90
2017,09,29,10,11,8.10
2017,09,29,10,12,6.40
2017,09,29,10,13,4.80
2017,09,29,10,14,6.40
2017,09,29,10,15,4.80
2017,09,29,10,16,6.40
2017,09,29,10,17,4.80
2017,09,29,10,18,9.60
2017,09,29,10,19,9.60
2017,09,29,10,20,4.80
2017,09,29,10,21,3.20
2017,09,29,10,22,3.20
2017,09,29,10,23,4.80
2017,09,29,10,24,8.10
2017,09,29,10,25,4.80
2017,09,29,10,26,4.80
2017,09,29,10,27,3.20
2017,09,29,10,28,1.60
2017,09,29,10,29,4.80
2017,09,29,10,30,8.10
2017,09,29,10,31,8.10
2017,09,29,10,32,11.30
2017,09,29,10,33,8.10
2017,09,29,10,34,9.60
2017,09,29,10,35,4.80
2017,09,29,10,36,8.10
2017,09,29,10,37,12.90
2017,09,29,10,38,6.40
2017,09,29,10,39,11.30
2017,09,29,10,40,8.10
2017,09,29,10,41,4.80
2017,09,29,10,42,3.20
2017,09,29,10,43,3.20
2017,09,29,10,44,3.20
2017,09,29,10,45,4.80
2017,09,29,10,46,8.10
2017,09,29,10,47,8.10
2017,09,29,10,48,8.10
2017,09,29,10,49,4.80
2017,09,29,10,50,3.20
2017,09,29,10,51,4.80
2017,09,29,10,52,4.80
2017,09,29,10,53,3.20
2017,09,29,10,54,6.40
2017,09,29,10,55,3.20
2017,09,29,10,56,3.20
2017,09,29,10,57,4.80
2017,09,29,10,58,8.10
2017,09,29,10,59,4.80
2017,09,29,11,00,6.40
2017,09,29,11,01,3.20
2017,09,29,11,02,4.80
2017,09,29,11,03,4.80
2017,09,29,11,04,3.20
2017,09,29,11,05,1.60
2017,09,29,11,06,1.60
2017,09,29,11,07,8.10
2017,09,29,11,08,4.80
2017,09,29,11,09,12.90
2017,09,29,11,10,11.30
2017,09,29,11,11,11.30
2017,09,29,11,12,9.60
2017,09,29,11,13,11.30
2017,09,29,11,14,8.10
2017,09,29,11,15,8.10
2017,09,29,11,16,6.40
2017,09,29,11,17,4.80
2017,09,29,11,18,4.80
2017,09,29,11,19,4.80
2017,09,29,11,20,8.10
2017,09,29,11,21,8.10
2017,09,29,11,22,4.80
2017,09,29,11,23,6.40
2017,09,29,11,24,6.40
2017,09,29,11,25,4.80
2017,09,29,11,26,6.40
2017,09,29,11,27,4.80
2017,09,29,11,28,4.80
2017,09,29,11,29,8.10
2017,09,29,11,30,4.80
2017,09,29,11,31,4.80
2017,09,29,11,32,1.60
2017,09,29,11,33,4.80
2017,09,29,11,34,4.80
2017,09,29,11,35,3.20
2017,09,29,11,36,1.60
2017,09,29,11,38,3.20
2017,09,29,11,39,3.20
2017,09,29,11,40,3.20
2017,09,29,11,41,3.20
2017,09,29,11,42,9.60
2017,09,29,11,43,8.10
2017,09,29,11,44,9.60
2017,09,29,11,45,8.10
2017,09,29,11,46,4.80
2017,09,29,11,47,6.40
2017,09,29,11,48,4.80
2017,09,29,11,49,4.80
2017,09,29,11,50,4.80
2017,09,29,11,51,8.10
2017,09,29,11,52,8.10
2017,09,29,11,53,6.40
2017,09,29,11,54,6.40
2017,09,29,11,55,6.40
2017,09,29,11,56,8.10
2017,09,29,11,57,6.40
2017,09,29,11,58,4.80
2017,09,29,11,59,6.40
2017,09,29,12,00,4.80
2017,09,29,12,01,3.20
2017,09,29,12,02,3.20
2017,09,29,12,03,6.40
2017,09,29,12,04,6.40
2017,09,29,12,05,9.60
2017,09,29,12,06,8.10
2017,09,29,12,07,6.40
2017,09,29,12,08,4.80
2017,09,29,12,09,6.40
2017,09,29,12,10,6.40
2017,09,29,12,11,8.10
2017,09,29,12,12,4.80
2017,09,29,12,13,4.80
2017,09,29,12,14,4.80
2017,09,29,12,15,4.80
2017,09,29,12,16,3.20
2017,09,29,12,17,1.60
2017,09,29,12,18,1.60
2017,09,29,12,19,1.60
2017,09,29,12,20,3.20
2017,09,29,12,21,3.20
2017,09,29,12,22,1.60
2017,09,29,12,23,6.40
2017,09,29,12,24,9.60
2017,09,29,12,25,11.30
2017,09,29,12,26,11.30
2017,09,29,12,27,11.30
2017,09,29,12,28,11.30
2017,09,29,12,29,8.10
2017,09,29,12,30,8.10
2017,09,29,12,31,11.30
2017,09,29,12,32,11.30
2017,09,29,12,33,9.60
2017,09,29,12,34,12.90
2017,09,29,12,35,11.30
2017,09,29,12,36,9.60
2017,09,29,12,37,11.30
2017,09,29,12,38,11.30
2017,09,29,12,39,11.30
2017,09,29,12,40,8.10
2017,09,29,12,41,8.10
2017,09,29,12,42,6.40
2017,09,29,12,43,6.40
2017,09,29,12,44,4.80
2017,09,29,12,45,6.40
2017,09,29,12,46,8.10
2017,09,29,12,47,8.10
2017,09,29,12,48,6.40
2017,09,29,12,49,4.80
2017,09,29,12,50,6.40
2017,09,29,12,51,6.40
2017,09,29,12,52,8.10
2017,09,29,12,53,8.10
2017,09,29,12,54,8.10
2017,09,29,12,55,6.40
2017,09,29,12,56,8.10
2017,09,29,12,57,12.90
2017,09,29,12,58,11.30
2017,09,29,12,59,11.30
2017,09,29,13,00,9.60
2017,09,29,13,01,11.30
2017,09,29,13,02,9.60
2017,09,29,13,03,9.60
2017,09,29,13,04,9.60
2017,09,29,13,05,11.30
2017,09,29,13,06,9.60
2017,09,29,13,07,8.10
2017,09,29,13,08,8.10
2017,09,29,13,09,3.20
2017,09,29,13,10,1.60
2017,09,29,13,11,3.20
2017,09,29,13,12,4.80
2017,09,29,13,13,1.60
2017,09,29,13,14,4.80
2017,09,29,13,15,3.20
2017,09,29,13,16,4.80
2017,09,29,13,17,6.40
2017,09,29,13,18,9.60
2017,09,29,13,19,4.80
2017,09,29,13,20,4.80
2017,09,29,13,21,8.10
2017,09,29,13,22,8.10
2017,09,29,13,23,14.50
2017,09,29,13,24,11.30
2017,09,29,13,25,9.60
2017,09,29,13,26,9.60
2017,09,29,13,27,8.10
2017,09,29,13,28,8.10
2017,09,29,13,29,8.10
2017,09,29,13,30,8.10
2017,09,29,13,31,8.10
2017,09,29,13,32,6.40
2017,09,29,13,33,4.80
2017,09,29,13,34,8.10
2017,09,29,13,35,9.60
2017,09,29,13,36,4.80
2017,09,29,13,37,9.60
2017,09,29,13,38,8.10
2017,09,29,13,39,8.10
2017,09,29,13,40,8.10
2017,09,29,13,41,6.40
2017,09,29,13,42,4.80
2017,09,29,13,43,6.40
2017,09,29,13,44,6.40
2017,09,29,13,45,8.10
2017,09,29,13,46,6.40
2017,09,29,13,47,8.10
2017,09,29,13,48,8.10
2017,09,29,13,49,4.80
2017,09,29,13,50,4.80
2017,09,29,13,51,6.40
2017,09,29,13,52,8.10
2017,09,29,13,53,9.60
2017,09,29,13,54,6.40
2017,09,29,13,55,4.80
2017,09,29,13,56,8.10
2017,09,29,13,57,9.60
2017,09,29,13,58,8.10
2017,09,29,13,59,4.80
2017,09,29,14,00,3.20
2017,09,29,14,01,6.40
2017,09,29,14,02,6.40
2017,09,29,14,03,11.30
2017,09,29,14,04,11.30
2017,09,29,14,05,12.90
2017,09,29,14,06,6.40
2017,09,29,14,07,6.40
2017,09,29,14,08,11.30
2017,09,29,14,09,6.40
2017,09,29,14,10,8.10
2017,09,29,14,11,9.60
2017,09,29,14,12,11.30
2017,09,29,14,13,8.10
2017,09,29,14,14,6.40
2017,09,29,14,15,9.60
2017,09,29,14,16,6.40
2017,09,29,14,17,9.60
2017,09,29,14,18,11.30
2017,09,29,14,19,12.90
2017,09,29,14,20,12.90
2017,09,29,14,21,6.40
2017,09,29,14,22,12.90
2017,09,29,14,23,14.50
2017,09,29,14,24,12.90
2017,09,29,14,25,11.30
2017,09,29,14,26,11.30
2017,09,29,14,27,16.10
2017,09,29,14,28,16.10
2017,09,29,14,29,16.10
2017,09,29,14,30,16.10
2017,09,29,14,31,14.50
2017,09,29,14,32,12.90
2017,09,29,14,33,11.30
2017,09,29,14,34,6.40
2017,09,29,14,35,11.30
2017,09,29,14,36,14.50
2017,09,29,14,37,9.60
2017,09,29,14,38,11.30
2017,09,29,14,39,11.30
2017,09,29,14,40,12.90
2017,09,29,14,41,9.60
2017,09,29,14,42,8.10
2017,09,29,14,43,11.30
2017,09,29,14,44,9.60
2017,09,29,14,45,9.60
2017,09,29,14,46,9.60
2017,09,29,14,47,17.70
2017,09,29,14,48,12.90
2017,09,29,14,49,16.10
2017,09,29,14,50,11.30
2017,09,29,14,51,11.30
2017,09,29,14,52,12.90
2017,09,29,14,53,17.70
2017,09,29,14,54,11.30
2017,09,29,14,55,20.90
2017,09,29,14,56,19.30
2017,09,29,14,57,16.10
2017,09,29,14,58,24.20
2017,09,29,14,59,16.10
2017,09,29,15,00,19.30
2017,09,29,15,01,22.50
2017,09,29,15,02,24.20
2017,09,29,15,03,24.20
2017,09,29,15,04,24.20
2017,09,29,15,05,20.90
2017,09,29,15,06,22.50
2017,09,29,15,07,17.70
2017,09,29,15,08,25.70
2017,09,29,15,09,16.10
2017,09,29,15,10,19.30
2017,09,29,15,11,17.70
2017,09,29,15,12,22.50
2017,09,29,15,13,19.30
2017,09,29,15,14,22.50
2017,09,29,15,15,22.50
2017,09,29,15,16,25.70
2017,09,29,15,17,27.40
2017,09,29,15,18,30.60
2017,09,29,15,19,29.00
2017,09,29,15,20,22.50
2017,09,29,15,21,25.70
2017,09,29,15,22,19.30
2017,09,29,15,23,20.90
2017,09,29,15,24,24.20
2017,09,29,15,25,24.20
2017,09,29,15,26,20.90
2017,09,29,15,27,20.90
2017,09,29,15,28,29.00
2017,09,29,15,29,20.90
2017,09,29,15,30,22.50
2017,09,29,15,31,25.70
2017,09,29,15,32,32.20
2017,09,29,15,33,25.70
2017,09,29,15,34,27.40
2017,09,29,15,35,16.10
2017,09,29,15,36,27.40
2017,09,29,15,37,20.90
2017,09,29,15,38,17.70
2017,09,29,15,39,22.50
2017,09,29,15,40,19.30
2017,09,29,15,41,24.20
2017,09,29,15,42,20.90
2017,09,29,15,43,17.70
2017,09,29,15,44,17.70
2017,09,29,15,45,14.50
2017,09,29,15,46,22.50
2017,09,29,15,47,25.70
2017,09,29,15,48,22.50
2017,09,29,15,49,14.50
2017,09,29,15,50,14.50
2017,09,29,15,51,19.30
2017,09,29,15,52,32.20
2017,09,29,15,53,20.90
2017,09,29,15,54,27.40
2017,09,29,15,55,27.40
2017,09,29,15,56,30.60
2017,09,29,15,57,25.70
2017,09,29,15,58,19.30
2017,09,29,15,59,33.80
2017,09,29,16,00,29.00
2017,09,29,16,01,19.30
2017,09,29,16,02,24.20
2017,09,29,16,03,20.90
2017,09,29,16,04,17.70
2017,09,29,16,05,25.70
2017,09,29,16,06,17.70
2017,09,29,16,07,19.30
2017,09,29,16,08,22.50
2017,09,29,16,09,24.20
2017,09,29,16,10,37.00
2017,09,29,16,11,35.40
2017,09,29,16,12,27.40
2017,09,29,16,13,29.00
2017,09,29,16,14,25.70
2017,09,29,16,15,27.40
2017,09,29,16,16,27.40
2017,09,29,16,17,20.90
2017,09,29,16,18,24.20
2017,09,29,16,19,20.90
2017,09,29,16,20,41.80
2017,09,29,16,21,37.00
2017,09,29,16,22,30.60
2017,09,29,16,23,27.40
2017,09,29,16,24,25.70
2017,09,29,16,25,19.30
2017,09,29,16,26,25.70
2017,09,29,16,27,22.50
2017,09,29,16,28,22.50
2017,09,29,16,29,33.80
2017,09,29,16,30,35.40
2017,09,29,16,31,33.80
2017,09,29,16,32,35.40
2017,09,29,16,33,29.00
2017,09,29,16,34,33.80
2017,09,29,16,35,24.20
2017,09,29,16,36,30.60
2017,09,29,16,37,32.20
2017,09,29,16,38,20.90
2017,09,29,16,39,32.20
2017,09,29,16,40,38.60
2017,09,29,16,41,30.60
2017,09,29,16,42,30.60
2017,09,29,16,43,19.30
2017,09,29,16,44,27.40
2017,09,29,16,45,27.40
2017,09,29,16,46,17.70
2017,09,29,16,47,33.80
2017,09,29,16,48,35.40
2017,09,29,16,49,22.50
2017,09,29,16,50,25.70
2017,09,29,16,51,27.40
2017,09,29,16,52,20.90
2017,09,29,16,53,38.60
2017,09,29,16,54,40.20
2017,09,29,16,55,35.40
2017,09,29,16,56,33.80
2017,09,29,16,57,32.20
2017,09,29,16,58,38.60
2017,09,29,16,59,33.80
2017,09,29,17,00,32.20
2017,09,29,17,01,33.80
2017,09,29,17,02,32.20
2017,09,29,17,03,35.40
2017,09,29,17,04,25.70
2017,09,29,17,05,33.80
2017,09,29,17,06,40.20
2017,09,29,17,07,41.80
2017,09,29,17,08,32.20
2017,09,29,17,09,38.60
2017,09,29,17,10,33.80
2017,09,29,17,11,33.80
2017,09,29,17,12,43.50
2017,09,29,17,13,35.40
2017,09,29,17,14,41.80
2017,09,29,17,15,35.40
2017,09,29,17,16,25.70
2017,09,29,17,17,38.60
2017,09,29,17,18,37.00
2017,09,29,17,19,38.60
2017,09,29,17,20,27.40
2017,09,29,17,21,35.40
2017,09,29,17,22,33.80
2017,09,29,17,23,41.80
2017,09,29,17,24,37.00
2017,09,29,17,25,30.60
2017,09,29,17,26,33.80
2017,09,29,17,27,25.70
2017,09,29,17,28,32.20
2017,09,29,17,29,37.00
2017,09,29,17,30,45.10
2017,09,29,17,31,37.00
2017,09,29,17,32,30.60
2017,09,29,17,33,27.40
2017,09,29,17,34,37.00
2017,09,29,17,35,38.60
2017,09,29,17,36,37.00
2017,09,29,17,37,32.20
2017,09,29,17,38,41.80
2017,09,29,17,39,54.70
2017,09,29,17,40,32.20
2017,09,29,17,41,30.60
2017,09,29,17,42,30.60
2017,09,29,17,43,43.50
2017,09,29,17,44,40.20
2017,09,29,17,45,32.20
2017,09,29,17,46,40.20
2017,09,29,17,47,43.50
2017,09,29,17,48,43.50
2017,09,29,17,49,37.00
2017,09,29,17,50,43.50
2017,09,29,17,51,43.50
2017,09,29,17,52,37.00
2017,09,29,17,53,32.20
2017,09,29,17,54,40.20
2017,09,29,17,55,38.60
2017,09,29,17,56,45.10
2017,09,29,17,57,27.40
2017,09,29,17,58,41.80
2017,09,29,17,59,33.80
2017,09,29,18,00,38.60
2017,09,29,18,01,40.20
2017,09,29,18,02,33.80
2017,09,29,18,03,38.60
2017,09,29,18,04,37.00
2017,09,29,18,05,32.20
2017,09,29,18,06,33.80
2017,09,29,18,07,41.80
2017,09,29,18,08,38.60
2017,09,29,18,09,40.20
2017,09,29,18,10,43.50
2017,09,29,18,11,37.00
2017,09,29,18,12,32.20
2017,09,29,18,13,33.80
2017,09,29,18,14,38.60
2017,09,29,18,15,48.30
2017,09,29,18,16,41.80
2017,09,29,18,17,41.80
2017,09,29,18,18,45.10
2017,09,29,18,19,35.40
2017,09,29,18,20,37.00
2017,09,29,18,21,29.00
2017,09,29,18,22,33.80